Weather reports worldwide

Advertisment
Portland Intl OR, United States of America (72698): temperature & dewpoint: 23.05.2020 07:00:00 - 29.05.2020 07:00:00 (PDT)Portland Intl OR, United States of America (72698): wind speed: 23.05.2020 07:00:00 - 29.05.2020 07:00:00 (PDT)Portland Intl OR, United States of America (72698): wind direction: 23.05.2020 07:00:00 - 29.05.2020 07:00:00 (PDT)Portland Intl OR, United States of America (72698): reduced air pressure: 23.05.2020 07:00:00 - 29.05.2020 07:00:00 (PDT)Portland Intl OR, United States of America (72698): visibility: 23.05.2020 07:00:00 - 29.05.2020 07:00:00 (PDT)Portland Intl OR, United States of America (72698): precipitation: 23.05.2020 07:00:00 - 29.05.2020 07:00:00 (PDT)
Date & Time tt [°C] td [°C] ff [km/h] ff [kn] dd ppp [hPa] vv [km] rr [mm]
29.05.2020 07:00:00 16,1 9,4 8 4 - 1014,0 16 -
29.05.2020 06:00:00 15,6 9,4 5 3 N 1013,8 16 -
29.05.2020 05:00:00 16,7 8,3 8 4 N 1013,3 16 0,0
29.05.2020 04:00:00 17,2 8,3 0 0 N 1013,2 16 -
29.05.2020 03:00:00 17,2 8,3 9 5 NW 1012,8 16 -
29.05.2020 02:00:00 18,3 8,3 8 4 NW 1013,0 16 -
29.05.2020 01:00:00 20,0 8,9 8 4 NNW 1012,7 16 -
29.05.2020 00:00:00 21,7 9,4 11 6 N 1012,6 16 -
28.05.2020 23:00:00 22,2 10,0 8 4 W 1011,9 16 0,0
28.05.2020 22:00:00 24,4 9,4 15 8 NW 1011,9 16 -
28.05.2020 21:00:00 25,0 11,1 15 8 NW 1011,5 16 -
28.05.2020 20:00:00 28,3 9,4 26 14 NW 1011,1 16 -
28.05.2020 19:00:00 30,0 8,9 8 4 NNW 1010,8 16 -
28.05.2020 18:00:00 32,8 6,1 16 9 WNW 1010,9 16 -
28.05.2020 17:00:00 32,2 6,7 16 9 WNW 1011,4 16 0,0
28.05.2020 16:00:00 32,2 7,8 16 9 W 1011,9 16 -
28.05.2020 15:00:00 31,7 7,8 16 9 W 1012,6 16 -
28.05.2020 14:00:00 30,6 7,2 18 10 W 1013,0 16 -
28.05.2020 13:00:00 28,9 11,1 16 9 WNW 1013,5 16 -
28.05.2020 12:00:00 26,7 9,4 16 9 W 1013,8 16 -
28.05.2020 11:00:00 25,0 8,9 9 5 W 1014,0 16 0,0
28.05.2020 10:00:00 22,8 9,4 8 4 - 1014,6 16 -
28.05.2020 09:00:00 20,0 8,3 9 5 W 1015,1 16 -
28.05.2020 08:00:00 17,8 8,3 5 3 W 1015,1 16 -
28.05.2020 07:00:00 15,0 7,8 9 5 WNW 1015,0 16 -
28.05.2020 06:00:00 13,9 8,3 8 4 W 1015,1 16 -
28.05.2020 05:00:00 13,9 8,3 5 3 WNW 1015,0 16 0,0
28.05.2020 04:00:00 15,0 8,9 0 0 N 1015,2 16 -
28.05.2020 03:00:00 16,1 7,2 0 0 N 1015,2 16 -
28.05.2020 02:00:00 16,7 8,3 0 0 N 1015,4 16 -
28.05.2020 01:00:00 17,8 6,7 5 3 W 1015,5 16 -
28.05.2020 00:00:00 18,3 6,7 9 5 W 1015,5 16 -
27.05.2020 23:00:00 19,4 7,2 11 6 W 1015,6 16 0,0
27.05.2020 22:00:00 21,7 6,7 16 9 WNW 1015,6 16 -
27.05.2020 21:00:00 23,3 7,2 15 8 W 1015,2 16 -
27.05.2020 20:00:00 26,1 6,1 15 8 WNW 1015,1 16 -
27.05.2020 19:00:00 26,7 6,1 13 7 NW 1015,0 16 -
27.05.2020 18:00:00 27,8 6,1 16 9 NW 1015,2 16 -
27.05.2020 17:00:00 28,3 8,3 18 10 NW 1015,6 16 0,0
27.05.2020 16:00:00 27,2 9,4 18 10 WNW 1016,4 16 -
27.05.2020 15:00:00 26,1 9,4 21 11 WNW 1017,1 16 -
27.05.2020 14:00:00 24,4 8,9 18 10 WNW 1017,8 16 -
27.05.2020 13:00:00 22,2 8,9 18 10 WNW 1018,6 16 -
27.05.2020 12:00:00 20,6 10,6 16 9 WNW 1019,1 16 -
27.05.2020 11:00:00 18,3 10,6 11 6 NW 1019,7 16 0,0
27.05.2020 10:00:00 16,1 10,6 0 0 N 1020,0 16 -
27.05.2020 09:00:00 13,9 10,6 5 3 ESE 1020,3 16 -
27.05.2020 08:00:00 12,2 10,6 8 4 E 1020,4 1,6 -
27.05.2020 07:00:00 11,7 9,4 5 3 ENE 1019,9 16 -
27.05.2020 06:00:00 11,7 9,4 0 0 N 1019,8 16 -
27.05.2020 05:00:00 11,1 9,4 0 0 N 1019,5 16 0,0
27.05.2020 04:00:00 11,7 8,9 0 0 N 1019,4 16 -
27.05.2020 03:00:00 12,2 8,9 0 0 N 1019,6 16 -
27.05.2020 02:00:00 12,8 9,4 5 3 WNW 1019,5 16 -
27.05.2020 01:00:00 13,9 10,0 0 0 N 1019,6 16 -
27.05.2020 00:00:00 15,0 10,0 5 3 WNW 1019,5 16 -
26.05.2020 23:00:00 16,7 10,0 9 5 W 1019,5 16 0,0
26.05.2020 22:00:00 17,2 10,6 9 5 WNW 1019,4 16 -
26.05.2020 21:00:00 17,8 11,1 15 8 NW 1019,0 16 -
26.05.2020 20:00:00 18,9 11,1 15 8 NW 1018,9 16 -
26.05.2020 19:00:00 20,0 11,1 11 6 NNW 1019,0 16 -
26.05.2020 18:00:00 20,6 11,1 15 8 NW 1019,1 16 -
26.05.2020 17:00:00 21,7 11,1 18 10 WNW 1019,2 16 0,0
26.05.2020 16:00:00 22,2 11,1 16 9 W 1019,4 16 -
26.05.2020 15:00:00 21,7 11,1 18 10 WNW 1019,6 16 -
26.05.2020 14:00:00 21,1 11,7 13 7 NW 1019,7 16 -
26.05.2020 13:00:00 20,0 11,1 16 9 W 1020,2 16 -
26.05.2020 12:00:00 18,9 11,1 11 6 WNW 1020,6 16 -
26.05.2020 11:00:00 17,8 10,6 9 5 - 1020,6 16 -
26.05.2020 10:00:00 16,7 11,1 9 5 N 1020,5 16 -
26.05.2020 09:00:00 16,1 10,6 8 4 N 1020,5 16 -
26.05.2020 08:00:00 15,6 11,7 13 7 NNW 1020,3 16 0,0
26.05.2020 07:00:00 14,4 12,2 5 3 NW 1020,1 16 0,0
26.05.2020 06:00:00 15,0 12,2 8 4 WNW 1019,6 16 -
26.05.2020 05:00:00 15,0 12,8 8 4 NW 1019,5 16 0,0
26.05.2020 04:00:00 15,6 13,3 8 4 WNW 1019,3 16 -
26.05.2020 03:00:00 15,0 13,9 5 3 NNW 1019,3 13 -
26.05.2020 02:00:00 14,4 13,3 8 4 NW 1019,5 13 -
26.05.2020 01:00:00 15,6 13,9 5 3 WNW 1019,6 16 -
26.05.2020 00:00:00 16,1 13,9 5 3 WNW 1019,8 16 -
25.05.2020 23:00:00 16,1 13,9 8 4 W 1019,8 16 0,0
25.05.2020 22:00:00 16,7 14,4 9 5 WNW 1019,9 16 -
25.05.2020 21:00:00 17,2 13,9 0 0 N 1019,4 16 -
25.05.2020 20:00:00 17,8 13,9 0 0 N 1019,3 16 -
25.05.2020 19:00:00 18,3 13,3 5 3 NNE 1019,3 16 -
25.05.2020 18:00:00 19,4 12,2 0 0 N 1019,0 16 -
25.05.2020 17:00:00 18,9 12,8 8 4 NE 1019,3 16 -
25.05.2020 16:00:00 17,8 13,3 11 6 ENE 1019,5 16 -
25.05.2020 15:00:00 17,2 13,3 13 7 E 1019,6 16 -
25.05.2020 14:00:00 16,1 12,8 8 4 ENE 1020,2 16 0,0
25.05.2020 13:00:00 15,0 12,2 8 4 ENE 1020,3 16 0,5
25.05.2020 12:00:00 13,9 11,7 5 3 NNE 1020,3 16 0,8
25.05.2020 11:00:00 13,9 11,7 0 0 N 1020,2 11 0,0
25.05.2020 10:00:00 13,3 10,6 5 3 WNW 1019,8 16 0,5
25.05.2020 09:00:00 13,3 10,0 5 3 WNW 1019,5 16 0,0
25.05.2020 08:00:00 13,3 9,4 0 0 N 1018,8 16 0,0
25.05.2020 07:00:00 13,3 9,4 0 0 N 1018,9 16 -
25.05.2020 06:00:00 12,8 9,4 0 0 N 1018,8 16 -
25.05.2020 05:00:00 13,3 8,9 0 0 N 1018,5 16 0,0
25.05.2020 04:00:00 12,8 8,9 5 3 W 1018,7 16 -
25.05.2020 03:00:00 13,9 9,4 0 0 N 1019,0 16 -
25.05.2020 02:00:00 14,4 9,4 0 0 N 1019,0 16 -
25.05.2020 01:00:00 15,0 9,4 0 0 N 1019,1 16 -
25.05.2020 00:00:00 16,1 9,4 5 3 W 1019,3 16 -
24.05.2020 23:00:00 17,2 9,4 9 5 N 1019,3 16 0,0
24.05.2020 22:00:00 18,3 9,4 5 3 NNW 1019,2 16 -
24.05.2020 21:00:00 18,9 10,0 13 7 NW 1019,2 16 -
24.05.2020 20:00:00 21,7 8,9 5 3 NNW 1018,8 16 -
24.05.2020 19:00:00 22,8 8,9 8 4 NNE 1019,1 16 -
24.05.2020 18:00:00 23,3 8,9 5 3 N 1019,5 16 -
24.05.2020 17:00:00 23,3 6,7 8 4 WNW 1019,8 16 0,0
24.05.2020 16:00:00 22,8 6,7 8 4 N 1020,4 16 -
24.05.2020 15:00:00 21,7 3,9 9 5 NW 1020,8 16 -
24.05.2020 14:00:00 20,6 6,1 5 3 W 1021,5 16 -
24.05.2020 13:00:00 19,4 6,1 8 4 N 1022,0 16 -
24.05.2020 12:00:00 17,8 6,1 5 3 NNW 1022,5 16 -
24.05.2020 11:00:00 16,7 7,2 5 3 NW 1022,8 16 0,0
24.05.2020 10:00:00 15,0 6,7 0 0 N 1022,9 16 -
24.05.2020 09:00:00 13,3 7,8 0 0 N 1022,7 16 -
24.05.2020 08:00:00 11,7 7,2 5 3 E 1023,0 16 -
24.05.2020 07:00:00 11,1 7,2 5 3 E 1023,3 16 -
24.05.2020 06:00:00 10,6 6,7 5 3 ESE 1022,8 16 -
24.05.2020 05:00:00 10,6 6,7 5 3 SE 1022,7 16 0,0
24.05.2020 04:00:00 10,6 6,7 8 4 E 1022,4 16 -
24.05.2020 03:00:00 10,6 7,2 9 5 E 1022,2 16 -
24.05.2020 02:00:00 11,1 7,2 11 6 E 1022,2 16 -
24.05.2020 01:00:00 11,1 7,2 11 6 ESE 1022,7 16 -
24.05.2020 00:00:00 11,7 7,2 5 3 E 1022,8 16 -
23.05.2020 23:00:00 12,2 7,2 8 4 E 1022,4 16 0,0
23.05.2020 22:00:00 12,2 7,8 5 3 E 1022,3 16 -
23.05.2020 21:00:00 14,4 5,6 5 3 ENE 1021,9 16 -
23.05.2020 20:00:00 15,6 4,4 0 0 N 1022,0 16 -
23.05.2020 19:00:00 16,1 4,4 8 4 N 1021,8 16 -
23.05.2020 18:00:00 16,1 3,9 9 5 NW 1022,4 16 -
23.05.2020 17:00:00 16,1 4,4 8 4 NW 1022,6 16 0,0
23.05.2020 16:00:00 15,6 4,4 13 7 WNW 1022,7 16 -
23.05.2020 15:00:00 15,6 5,0 0 0 N 1023,0 16 -
23.05.2020 14:00:00 15,0 3,9 5 3 N 1023,1 16 -
23.05.2020 13:00:00 14,4 4,4 11 6 WNW 1023,3 16 -
23.05.2020 12:00:00 13,3 5,6 5 3 E 1023,1 16 -
23.05.2020 11:00:00 13,9 5,6 0 0 N 1023,0 16 0,0
23.05.2020 10:00:00 12,2 6,1 5 3 WNW 1023,0 16 -
23.05.2020 09:00:00 11,7 6,7 8 4 NW 1023,1 16 -
23.05.2020 08:00:00 11,1 7,2 0 0 N 1023,2 16 -
23.05.2020 07:00:00 11,1 6,7 0 0 N 1023,1 16 -

tt = temperature
td = dewpoint
ff = wind speed
dd = wind direction
ppp = reduced air pressure
vv = visibility
rr = precipitation

Next stations